Location: Unspecified
(0.0000°N, 0.0000°E)
Time: 12:48:30
(UTC+00:00)

Cosmos 2058 - Pass Details

Date: 29 April 2019
Orbit: 561 x 585 km, 82.5° (Epoch: 23 May)

Event Time Altitude Azimuth Distance (km) Brightness Sun altitude
Rises 18:46:07 0° 337° (NNW) 2,735 7.0 -11.8°
Reaches altitude 10° 18:48:30 10° 325° (NW) 1,843 6.3 -12.4°
Maximum altitude 18:51:58 27° 266° (W) 1,094 5.2 -13.2°
Drops below altitude 10° 18:55:26 10° 208° (SSW) 1,855 5.7 -14.0°
Sets 18:57:52 0° 195° (SSW) 2,757 6.4 -14.6°
